Location: Kuffner-Sternwarte
(48.2130°N, 16.2960°E)
Time: 15:20:11
(UTC+02:00)

COROT - Pass Details

Date: 07 May 2026
Orbit: 594 x 855 km, 90.1° (Epoch: 21 May)

Event Time Altitude Azimuth Distance (km) Brightness Sun altitude
Rises 23:59:19 0° 3° (N) 3,423 10.6 -24.0°
Reaches altitude 10° 00:01:48 10° 6° (N) 2,467 9.6 -24.1°
Maximum altitude 00:07:20 68° 90° (E) 873 6.1 -24.3°
Enters shadow 00:08:01 61° 133° (SE) 914 6.1 -24.3°
